SCP
1 1 1 1 1 1 1 1 1 1 1 1 1 0 0 0 0 0 0 0 0 0 0 0 0 0 0 0 0 1 1 0 0 0 0 0 0 0 0 0 0 0 0
1 1 1 1 1 1 1 1 1 1 1 1 1 1 1 0 0 0 0 0 0 0 0 0 0 0 0 0 0 0 0 0 0 0 0 0 0 0 0 0 0 0 0
1 1 1 1 1 1 2 2 1 1 1 1 1 1 1 1 0 0 0 0 0 0 0 0 0 0 0 0 0 0 0 0 0 0 0 0 0 0 0 0 0 0 0
1 1 1 1 1 1 2 2 2 2 1 1 1 1 1 1 1 0 1 0 0 0 0 0 0 0 0 0 0 0 0 0 0 0 0 0 0 0 0 0 0 0 0
1 2 2 1 1 1 2 2 2 2 1 1 1 1 1 1 1 1 1 1 0 0 0 0 0 0 0 0 0 0 0 0 0 0 0 0 0 0 0 0 0 0 0
2 2 2 1 2 2 2 2 2 1 1 1 1 1 1 1 1 1 1 1 0 0 0 0 0 0 0 0 0 0 0 0 0 0 0 0 0 0 0 0 0 0 0
2 2 1 1 1 2 2 2 2 1 1 1 1 1 1 1 1 1 1 1 0 0 0 0 0 0 0 0 0 0 0 0 0 0 0 0 0 0 0 0 0 0 0
2 1 1 1 1 1 1 1 1 2 1 1 1 1 1 1 1 1 1 1 1 1 1 1 1 1 1 0 0 0 0 0 0 0 0 0 1 0 0 0 0 0 0
1 1 1 1 1 1 1 1 1 1 1 1 1 1 1 1 1 1 1 1 1 1 1 1 1 1 1 1 0 0 0 0 0 0 0 1 1 0 0 0 0 0 0
1 1 1 1 1 1 1 1 1 1 1 1 1 1 1 1 1 1 1 1 1 1 1 1 1 1 1 1 0 0 0 0 0 0 0 1 1 0 0 0 0 0 0
1 1 1 1 1 1 1 1 1 1 1 1 1 1 1 1 1 1 1 1 1 1 1 1 1 1 1 1 0 0 0 0 0 0 1 1 1 1 0 0 0 0 0
0 0 1 1 0 0 1 1 1 1 1 1 1 1 1 1 1 1 1 1 1 1 1 1 1 1 1 1 1 1 0 0 0 0 1 1 1 1 0 0 0 0 0
0 0 0 0 0 0 0 1 1 2 2 2 1 1 1 1 1 1 1 1 1 1 1 1 1 1 1 1 1 1 1 0 0 1 1 2 1 1 1 0 0 0 0
0 0 0 0 0 0 0 1 1 1 1 1 1 1 1 1 1 1 1 1 1 1 1 1 1 1 1 1 1 1 1 0 0 1 1 2 2 1 1 0 0 0 0
0 0 0 0 0 0 0 0 1 1 1 1 1 1 1 1 1 1 1 1 1 1 1 1 1 1 1 1 1 1 1 0 1 1 1 2 1 1 1 0 0 0 0
0 0 0 0 0 0 0 0 0 1 1 1 1 1 1 1 1 1 1 1 1 1 1 1 1 1 1 1 1 1 1 1 1 1 1 1 1 1 1 1 0 0 0
0 0 0 0 0 0 0 0 0 0 0 0 0 0 0 1 1 1 1 1 1 1 2 2 1 1 1 1 1 1 1 1 1 1 1 1 1 1 1 1 1 0 0
0 0 0 0 0 0 0 0 0 0 0 0 0 0 0 0 1 1 1 1 1 1 1 2 2 1 1 1 1 1 1 1 1 1 1 1 1 1 1 1 1 1 1
0 0 0 0 0 0 0 0 0 0 0 0 0 0 0 1 1 1 1 1 1 1 1 1 1 2 1 1 1 1 1 1 1 1 1 1 1 1 1 1 1 1 1
0 0 0 0 0 0 0 0 0 0 0 0 0 0 0 0 0 1 1 1 1 1 1 1 1 1 1 1 1 1 1 1 1 1 1 1 1 1 1 1 1 1 1
0 0 0 0 0 0 0 0 0 0 0 0 0 0 0 0 0 0 1 1 1 1 1 1 1 1 1 1 1 1 1 1 1 1 1 1 1 1 1 1 1 1 1
0 0 0 0 0 0 0 0 0 0 0 0 0 0 0 0 0 0 0 1 1 1 1 1 1 1 1 1 1 1 1 1 1 1 1 1 1 1 1 1 1 1 1
0 0 0 0 0 0 0 0 0 0 0 0 0 0 0 0 0 0 0 0 1 1 1 1 1 1 1 1 1 1 1 1 1 1 1 1 1 1 1 1 1 1 1
0 0 0 0 0 0 0 0 0 0 0 0 0 0 0 0 0 0 0 0 0 1 1 1 1 1 1 1 1 1 1 1 1 1 1 1 1 1 1 1 1 1 1
0 0 0 0 0 0 0 0 0 0 0 0 0 0 0 0 0 0 0 0 0 1 1 1 1 1 1 1 1 1 1 1 1 1 1 1 1 2 2 2 1 1 1
0 0 0 0 0 0 0 0 0 0 0 0 0 0 0 0 0 0 0 0 0 0 1 1 1 1 1 1 1 1 1 1 1 1 1 1 1 2 2 2 1 1 1
Wind_Speed
8 12 11 9 7 5 5 4 3 3 2 2 1 1 1 1 1 2 3 3 4 4 5 5 5 5 6 6 6 6 6 5 5 4 4 4 4 5 5 5 4 5 7
11 12 11 8 6 5 4 3 2 1 1 1 0 0 0 0 1 1 1 2 2 3 3 4 4 4 4 5 5 5 5 5 5 4 2 1 3 4 4 6 7 4 6
10 11 10 8 6 4 3 2 1 1 1 1 1 2 2 1 1 1 2 2 2 2 2 3 3 3 3 4 4 5 5 5 5 6 6 2 2 4 4 5 5 5 5
10 10 10 8 6 4 2 1 1 1 1 2 2 3 3 3 3 3 3 3 3 3 2 2 2 3 3 3 3 4 5 5 7 9 4 1 3 6 4 4 4 4 4
10 11 10 9 7 5 4 3 2 2 2 2 3 3 4 4 4 4 5 4 4 4 3 3 2 3 3 3 3 4 5 6 8 8 4 3 4 5 5 4 4 3 4
9 10 9 9 8 6 5 4 3 3 2 3 3 4 4 5 5 6 6 6 5 5 5 4 3 3 3 3 3 3 5 7 9 5 2 3 4 5 5 4 3 3 3
7 7 8 8 6 5 4 4 3 3 3 3 3 4 5 6 6 7 7 7 6 6 6 5 4 4 4 4 3 4 5 7 7 5 1 4 5 6 5 4 3 3 3
6 6 6 6 4 3 3 2 2 2 3 4 4 4 5 6 7 8 8 8 8 8 7 6 6 5 6 5 5 5 5 8 7 5 1 5 7 7 5 4 3 3 3
5 4 3 2 2 3 2 1 0 1 3 4 5 5 5 6 8 9 10 10 9 9 8 8 7 7 7 6 6 6 6 7 6 5 1 5 8 7 5 4 3 3 3
4 3 2 2 2 1 1 2 2 3 4 5 5 5 6 7 9 11 11 11 11 10 9 9 8 8 8 8 8 8 8 7 6 5 1 6 9 7 5 4 3 3 3
4 3 2 2 1 1 2 1 2 5 5 6 5 7 6 4 5 6 9 10 11 11 10 10 10 10 9 9 10 10 8 5 6 3 3 9 9 7 6 5 4 4 4
5 5 4 4 3 2 2 1 2 2 2 4 3 4 3 4 4 6 5 9 10 11 10 11 11 10 8 6 9 10 5 8 6 3 6 12 10 8 6 5 5 5 5
4 5 5 5 5 4 2 1 1 2 2 3 4 4 4 3 3 4 2 4 5 7 6 7 7 6 7 6 5 6 8 7 4 3 7 12 11 9 7 7 6 6 6
5 4 4 6 6 6 5 3 3 2 2 2 3 4 3 2 3 3 3 2 3 3 4 4 4 6 8 8 6 8 7 4 2 4 7 12 11 10 9 8 7 7 7
5 5 6 6 7 6 5 3 4 3 2 3 2 3 4 3 3 3 3 3 3 3 4 4 4 5 5 4 4 5 4 4 3 4 6 12 12 10 10 9 9 8 8
6 6 5 5 5 6 5 5 4 4 4 3 3 4 4 3 3 3 4 3 4 3 4 4 5 4 3 2 4 3 3 3 3 5 6 8 12 11 10 10 10 9 9
6 6 6 5 6 6 6 6 5 4 4 3 3 4 5 4 3 3 3 3 3 4 5 3 4 2 3 3 4 4 3 3 2 4 7 6 7 10 11 11 11 10 10
6 6 5 6 6 6 5 5 4 4 4 4 4 4 5 5 5 3 2 2 3 3 3 3 3 2 2 2 2 2 3 2 3 3 5 6 6 7 9 12 11 11 11
5 5 5 5 5 5 5 4 4 4 4 4 3 3 4 5 6 4 2 2 3 2 2 3 3 2 2 2 2 2 2 2 3 4 4 5 6 6 7 10 12 12 11
4 5 5 4 4 5 4 4 4 4 4 4 3 3 4 4 5 4 3 3 2 2 2 2 2 3 3 3 4 3 2 2 3 3 3 3 4 6 8 8 7 8 11
4 5 5 4 4 4 3 3 4 4 4 4 3 4 4 4 4 4 4 3 3 2 3 3 2 3 3 2 1 2 2 3 4 3 2 2 3 4 6 9 7 6 6
4 4 5 5 5 3 2 3 3 4 3 3 3 4 4 4 4 5 4 3 3 2 3 3 2 2 2 3 3 2 1 2 3 4 2 2 3 3 4 7 7 8 8
4 5 6 5 5 5 5 3 4 4 3 4 4 3 4 4 4 3 4 4 3 2 2 3 3 3 3 3 4 3 3 3 2 2 2 2 2 2 3 4 6 7 8
4 5 5 6 6 6 5 4 5 4 4 5 4 4 5 4 3 3 3 4 3 2 2 3 3 2 3 3 2 3 3 2 2 1 2 2 2 2 2 2 4 5 6
4 4 4 5 5 5 5 5 4 3 3 4 4 5 5 4 4 4 3 3 3 2 3 2 2 3 2 3 3 2 2 2 2 2 2 2 1 2 3 3 2 3 4
3 3 3 3 4 4 5 5 4 4 5 5 5 5 4 3 3 4 4 3 3 2 2 2 2 3 3 3 3 3 2 2 3 3 3 3 2 2 1 2 2 2 3
Wind_Direction
106 113 121 115 111 108 101 95 87 81 85 91 87 93 131 64 45 46 33 25 21 20 21 23 23 28 26 22 22 22 24 25 22 26 37 53 64 60 52 41 42 76 79
105 111 115 113 110 111 106 100 89 75 58 56 334 258 233 304 15 24 4 356 359 6 9 12 14 19 20 17 17 16 15 10 358 346 330 51 90 77 63 54 63 80 81
97 110 111 102 97 98 103 103 86 14 333 309 286 271 270 253 259 278 287 300 313 331 342 350 354 3 13 15 10 6 0 348 332 318 301 255 137 98 80 70 78 84 83
82 90 97 97 85 76 67 51 7 323 305 290 280 278 276 263 259 261 267 275 282 289 298 315 326 337 351 3 359 355 346 330 319 313 300 175 116 101 90 76 82 90 87
76 80 83 83 76 65 49 31 7 340 308 286 276 277 276 269 265 265 265 266 270 275 276 281 292 302 317 335 341 338 331 319 313 304 307 94 94 103 96 83 87 94 99
79 87 84 77 71 60 47 32 10 351 326 300 277 269 267 266 265 265 266 263 264 267 266 266 265 278 287 298 308 316 316 313 309 294 318 97 105 104 99 92 93 96 105
67 86 92 90 84 73 57 35 16 353 334 316 298 276 266 266 266 267 265 261 260 261 262 259 252 261 267 271 277 289 298 303 285 278 218 105 112 110 101 95 97 102 115
61 70 93 108 109 107 96 66 27 353 329 313 303 298 281 272 268 267 263 260 256 256 256 254 247 248 255 259 260 269 282 292 295 305 149 121 125 118 108 99 101 108 124
59 62 70 95 123 140 130 120 212 296 284 281 281 281 280 275 266 262 258 255 253 253 252 249 245 244 248 251 252 255 266 279 288 282 236 123 131 127 120 107 105 114 119
68 54 49 46 36 18 178 170 226 248 256 261 264 267 267 266 261 255 253 249 247 249 249 247 244 242 242 245 245 246 251 270 261 262 152 131 135 133 129 120 114 120 125
50 35 16 6 12 277 275 212 234 252 247 253 256 256 259 259 258 249 245 243 240 241 243 244 241 240 240 240 239 239 241 243 248 225 127 135 139 139 140 135 130 130 130
28 19 3 353 338 314 310 322 240 258 228 238 244 251 240 243 251 260 265 248 241 239 240 240 240 238 235 237 228 226 231 232 243 199 142 145 144 147 149 147 144 141 140
32 17 353 354 333 333 322 312 284 262 238 239 238 240 241 244 243 248 246 248 239 239 235 232 228 229 227 228 210 199 224 231 221 154 145 148 149 153 156 156 153 149 149
40 6 359 359 347 347 347 341 293 269 254 253 240 241 233 232 237 237 224 220 218 225 230 230 217 223 230 236 216 206 219 224 195 133 152 153 153 159 164 165 163 160 160
26 5 17 5 354 343 337 316 318 316 308 288 264 255 244 231 236 241 235 220 219 222 225 222 222 236 239 245 250 232 224 214 187 160 151 160 159 165 170 172 172 169 168
13 7 21 360 353 341 341 338 329 324 310 303 298 283 273 249 235 229 235 232 226 224 227 218 226 224 237 246 267 270 258 240 201 145 154 166 167 170 174 177 176 174 173
9 5 6 349 3 353 346 338 325 317 317 321 317 314 309 298 275 255 237 233 232 221 222 217 230 229 222 228 240 253 255 241 244 170 163 165 172 178 180 180 179 178 176
3 359 0 0 359 346 337 325 317 320 328 325 319 316 318 318 315 304 275 254 245 236 221 211 212 232 234 227 234 256 268 241 241 217 169 169 171 177 183 183 178 178 178
356 354 7 7 352 344 340 331 330 330 329 320 322 327 329 329 318 313 306 285 272 252 229 227 211 198 231 239 238 234 259 270 241 232 199 189 175 168 169 182 178 177 178
359 4 11 359 359 355 356 344 343 335 331 322 323 325 330 320 314 316 299 291 287 273 252 236 222 204 213 217 240 243 231 257 260 238 223 200 170 173 167 171 174 180 180
21 18 359 353 0 5 5 339 337 327 323 315 317 332 331 320 318 304 296 295 287 270 263 250 239 220 218 201 201 266 273 257 268 257 232 216 174 182 165 165 177 173 177
30 14 349 0 349 3 357 336 323 322 316 315 334 334 331 324 319 310 303 286 272 258 259 259 241 218 229 197 178 171 223 265 267 249 229 225 201 178 167 174 179 172 169
34 16 357 355 354 9 357 352 340 334 326 339 337 332 324 315 310 309 303 297 285 266 246 245 240 224 219 219 198 184 177 199 224 266 240 231 212 195 178 175 180 173 170
35 28 358 358 5 8 356 356 344 334 337 328 324 318 318 313 315 312 297 290 286 280 263 246 237 235 217 222 227 223 214 170 165 217 282 257 227 197 191 205 183 167 168
37 28 358 360 4 3 342 327 318 337 329 318 320 319 322 320 325 322 314 303 294 286 276 263 253 243 226 220 215 217 225 211 199 177 208 230 248 229 194 201 171 166 161
41 20 357 356 1 343 330 329 339 343 334 328 329 328 326 321 320 329 321 308 300 288 280 274 256 248 241 237 225 208 206 193 196 194 194 200 207 240 216 195 175 171 161